Find Starlink 1784

NORAD ID: 46687 Int'l Des: 2020-073 Owner: SPXS Country: US Constellation: starlink decayed
LEOCIRCULAR

Re-entered — 13. Juli 2026

3D-Globus wird geladen...

About Starlink 1784

Starlink 1784 (NORAD 46687) is a starlink constellation satellite (v1.0) launched Oct 18, 2020 by SPXS of US. It re-entered the atmosphere on Jul 13, 2026. with a mass of 260.00 kg.

Höhenverlauf

Loading altitude history...

Zweizeiliger Elementsatz

1 46687U 20073T 26194.66140128 .09828859 12513-4 43083-3 0 9999
2 46687 53.0158 274.6167 0007717 302.0925 57.9372 16.42938322317814
Epoch: 13. Juli 2026 • Age: 1719 hours

Aktueller Status

Position data unavailable
Startdatum 18. Okt. 2020
Alter 5.9 years
Verglühungsdatum 13. Juli 2026
Typ internet

Technische Details

Klassifizierung Payload
Masse 260.00 kg
Trockenmasse 248.00 kg
Länge 0.20 m
Spannweite 9.00 m
Form ? Box + pan
Hersteller SPXS
Bus-Typ Starlink
Phasenstatus Unknown Transfer Status
Besitzer/Staat SPXS/US

Most Searched